QPF
0.01 0.00 0.00 0.01 0.01 0.00 0.00 0.01 0.01 0.02 0.02 0.02 0.01 0.01 0.00 0.00 0.00 0.00 0.00 0.02 0.03 0.05 0.04 0.03 0.04 0.04 0.05 0.05 0.06 0.07 0.07 0.07 0.06 0.08 0.14 0.12 0.08 0.05 0.04 0.04 0.05 0.05 0.06
0.00 0.00 0.00 0.01 0.01 0.02 0.02 0.02 0.01 0.02 0.03 0.02 0.01 0.01 0.01 0.00 0.00 0.00 0.00 0.01 0.02 0.04 0.05 0.05 0.05 0.06 0.05 0.04 0.06 0.07 0.07 0.06 0.06 0.07 0.11 0.14 0.08 0.03 0.03 0.04 0.04 0.06 0.06
0.00 0.00 0.00 0.01 0.01 0.01 0.02 0.02 0.02 0.03 0.03 0.02 0.01 0.01 0.00 0.00 0.00 0.00 0.00 0.01 0.02 0.04 0.06 0.07 0.07 0.07 0.05 0.05 0.05 0.05 0.06 0.05 0.06 0.08 0.09 0.09 0.08 0.05 0.04 0.04 0.05 0.05 0.05
0.00 0.01 0.00 0.00 0.00 0.00 0.00 0.01 0.02 0.01 0.02 0.01 0.01 0.01 0.00 0.00 0.00 0.00 0.00 0.01 0.03 0.04 0.05 0.05 0.06 0.06 0.05 0.04 0.04 0.05 0.05 0.04 0.05 0.06 0.07 0.07 0.07 0.05 0.03 0.03 0.04 0.05 0.04
0.01 0.01 0.01 0.00 0.00 0.00 0.01 0.01 0.02 0.01 0.01 0.01 0.01 0.01 0.01 0.00 0.01 0.01 0.01 0.01 0.03 0.04 0.03 0.05 0.07 0.05 0.05 0.05 0.06 0.06 0.05 0.04 0.04 0.04 0.03 0.03 0.03 0.03 0.03 0.03 0.03 0.04 0.04
0.01 0.01 0.00 0.00 0.00 0.00 0.00 0.01 0.01 0.01 0.01 0.01 0.01 0.01 0.01 0.01 0.01 0.02 0.04 0.04 0.05 0.04 0.04 0.04 0.06 0.05 0.06 0.07 0.08 0.08 0.06 0.05 0.04 0.06 0.04 0.03 0.02 0.03 0.03 0.03 0.04 0.03 0.03
0.01 0.01 0.00 0.00 0.00 0.00 0.00 0.00 0.01 0.01 0.01 0.01 0.01 0.01 0.01 0.01 0.01 0.02 0.06 0.08 0.06 0.05 0.04 0.04 0.05 0.05 0.05 0.07 0.11 0.11 0.08 0.06 0.06 0.06 0.06 0.05 0.04 0.04 0.03 0.03 0.03 0.03 0.03
0.00 0.00 0.00 0.00 0.00 0.00 0.00 0.00 0.00 0.00 0.01 0.01 0.01 0.01 0.01 0.00 0.00 0.01 0.05 0.09 0.06 0.06 0.04 0.03 0.04 0.04 0.03 0.03 0.05 0.06 0.07 0.07 0.07 0.08 0.08 0.09 0.08 0.06 0.03 0.02 0.02 0.02 0.02
0.00 0.00 0.00 0.00 0.00 0.00 0.00 0.01 0.01 0.01 0.01 0.01 0.01 0.01 0.01 0.01 0.00 0.01 0.03 0.07 0.07 0.06 0.04 0.03 0.03 0.02 0.02 0.02 0.02 0.02 0.03 0.03 0.04 0.06 0.07 0.08 0.10 0.08 0.05 0.03 0.02 0.03 0.03
0.01 0.01 0.01 0.01 0.00 0.00 0.00 0.00 0.01 0.01 0.01 0.01 0.01 0.01 0.01 0.01 0.01 0.02 0.03 0.04 0.05 0.06 0.04 0.04 0.03 0.02 0.02 0.02 0.02 0.02 0.02 0.01 0.03 0.05 0.05 0.05 0.06 0.06 0.05 0.03 0.03 0.03 0.04
0.03 0.02 0.01 0.00 0.00 0.00 0.00 0.00 0.00 0.00 0.01 0.01 0.02 0.02 0.02 0.02 0.01 0.02 0.04 0.03 0.03 0.05 0.04 0.04 0.04 0.03 0.02 0.02 0.01 0.02 0.02 0.01 0.03 0.04 0.04 0.04 0.05 0.05 0.04 0.04 0.03 0.03 0.04
0.04 0.02 0.01 0.00 0.00 0.00 0.00 0.00 0.00 0.00 0.00 0.00 0.01 0.01 0.01 0.02 0.02 0.03 0.04 0.03 0.02 0.04 0.04 0.03 0.03 0.03 0.03 0.02 0.02 0.02 0.03 0.02 0.03 0.04 0.04 0.04 0.05 0.06 0.05 0.04 0.04 0.05 0.05
0.03 0.02 0.01 0.01 0.00 0.00 0.00 0.00 0.00 0.00 0.00 0.00 0.01 0.01 0.01 0.02 0.02 0.02 0.03 0.03 0.02 0.03 0.02 0.02 0.04 0.02 0.02 0.02 0.02 0.03 0.04 0.03 0.03 0.03 0.03 0.04 0.07 0.07 0.06 0.06 0.04 0.05 0.06
0.03 0.03 0.02 0.01 0.01 0.00 0.00 0.00 0.00 0.00 0.00 0.00 0.00 0.01 0.01 0.02 0.02 0.02 0.02 0.02 0.03 0.02 0.02 0.02 0.04 0.04 0.02 0.02 0.02 0.03 0.04 0.05 0.04 0.03 0.02 0.02 0.04 0.07 0.09 0.09 0.05 0.04 0.05
0.03 0.03 0.03 0.02 0.01 0.01 0.00 0.00 0.00 0.00 0.00 0.00 0.00 0.01 0.01 0.02 0.02 0.02 0.02 0.03 0.03 0.03 0.02 0.02 0.04 0.05 0.04 0.04 0.04 0.03 0.04 0.07 0.05 0.03 0.02 0.02 0.02 0.04 0.06 0.09 0.08 0.05 0.03
0.02 0.02 0.01 0.02 0.03 0.02 0.01 0.00 0.00 0.00 0.01 0.01 0.01 0.01 0.02 0.02 0.01 0.01 0.01 0.01 0.02 0.03 0.03 0.03 0.03 0.04 0.04 0.05 0.06 0.06 0.06 0.09 0.07 0.05 0.03 0.02 0.02 0.03 0.05 0.06 0.06 0.05 0.04
0.02 0.01 0.02 0.03 0.04 0.03 0.02 0.01 0.00 0.00 0.00 0.00 0.01 0.01 0.01 0.01 0.01 0.01 0.01 0.01 0.01 0.02 0.02 0.02 0.02 0.03 0.04 0.04 0.07 0.09 0.09 0.11 0.10 0.07 0.05 0.03 0.02 0.02 0.04 0.05 0.05 0.04 0.02
0.02 0.01 0.02 0.04 0.05 0.03 0.01 0.01 0.00 0.00 0.00 0.00 0.00 0.00 0.00 0.01 0.01 0.01 0.01 0.01 0.01 0.01 0.01 0.01 0.02 0.03 0.04 0.04 0.05 0.09 0.11 0.14 0.13 0.11 0.08 0.05 0.03 0.03 0.03 0.03 0.03 0.03 0.02
0.02 0.02 0.02 0.02 0.02 0.02 0.02 0.02 0.01 0.01 0.00 0.01 0.01 0.00 0.00 0.01 0.01 0.01 0.01 0.01 0.01 0.00 0.00 0.01 0.02 0.03 0.06 0.05 0.05 0.07 0.10 0.13 0.14 0.13 0.11 0.09 0.06 0.04 0.03 0.04 0.03 0.03 0.02
0.02 0.02 0.02 0.02 0.03 0.03 0.02 0.02 0.02 0.01 0.02 0.02 0.01 0.01 0.01 0.01 0.01 0.02 0.01 0.01 0.01 0.01 0.00 0.01 0.02 0.03 0.04 0.03 0.04 0.06 0.09 0.11 0.12 0.15 0.15 0.13 0.10 0.07 0.05 0.04 0.03 0.02 0.02
0.02 0.03 0.03 0.03 0.04 0.03 0.03 0.03 0.03 0.03 0.03 0.02 0.01 0.01 0.01 0.01 0.02 0.02 0.01 0.01 0.01 0.01 0.01 0.01 0.02 0.03 0.04 0.03 0.03 0.04 0.07 0.07 0.09 0.11 0.13 0.14 0.11 0.09 0.08 0.06 0.04 0.03 0.02
0.02 0.02 0.02 0.02 0.03 0.03 0.04 0.05 0.04 0.04 0.03 0.03 0.02 0.01 0.01 0.01 0.01 0.01 0.02 0.03 0.03 0.02 0.02 0.01 0.02 0.03 0.04 0.03 0.02 0.04 0.05 0.05 0.06 0.08 0.09 0.10 0.09 0.07 0.07 0.07 0.05 0.03 0.02
0.02 0.02 0.02 0.02 0.02 0.02 0.04 0.06 0.05 0.04 0.03 0.02 0.02 0.01 0.02 0.02 0.02 0.01 0.02 0.03 0.03 0.04 0.04 0.03 0.03 0.05 0.05 0.06 0.04 0.03 0.04 0.04 0.04 0.05 0.05 0.08 0.07 0.06 0.06 0.06 0.06 0.04 0.03
0.02 0.02 0.02 0.01 0.01 0.02 0.03 0.04 0.04 0.03 0.03 0.02 0.02 0.02 0.02 0.02 0.03 0.02 0.02 0.02 0.03 0.04 0.05 0.04 0.05 0.06 0.07 0.08 0.07 0.04 0.03 0.03 0.04 0.04 0.05 0.06 0.06 0.05 0.06 0.06 0.05 0.04 0.03
0.02 0.03 0.03 0.02 0.02 0.02 0.03 0.03 0.03 0.02 0.02 0.01 0.01 0.02 0.02 0.02 0.03 0.04 0.03 0.03 0.02 0.03 0.04 0.06 0.06 0.06 0.08 0.09 0.11 0.07 0.03 0.04 0.04 0.04 0.04 0.05 0.04 0.05 0.07 0.07 0.06 0.05 0.04
0.05 0.04 0.04 0.03 0.03 0.03 0.03 0.03 0.02 0.01 0.01 0.01 0.01 0.01 0.02 0.02 0.03 0.03 0.02 0.02 0.02 0.03 0.04 0.05 0.05 0.05 0.06 0.09 0.11 0.09 0.06 0.04 0.04 0.04 0.03 0.04 0.04 0.04 0.07 0.08 0.06 0.04 0.03
MSLP
1013.97 1014.11 1014.12 1014.02 1013.83 1013.58 1013.33 1013.08 1012.87 1012.71 1012.56 1012.44 1012.30 1012.15 1011.98 1011.79 1011.59 1011.40 1011.23 1011.10 1010.99 1010.93 1010.89 1010.88 1010.88 1010.90 1010.93 1010.98 1011.06 1011.18 1011.35 1011.58 1011.87 1012.22 1012.61 1013.04 1013.48 1013.90 1014.29 1014.62 1014.88 1015.09 1015.24
1013.80 1013.98 1014.06 1014.04 1013.94 1013.78 1013.59 1013.39 1013.22 1013.06 1012.93 1012.81 1012.70 1012.57 1012.42 1012.25 1012.06 1011.85 1011.65 1011.46 1011.30 1011.17 1011.06 1010.99 1010.96 1010.95 1010.96 1011.00 1011.07 1011.18 1011.34 1011.55 1011.83 1012.16 1012.55 1012.97 1013.41 1013.84 1014.24 1014.59 1014.87 1015.09 1015.25
1013.53 1013.74 1013.88 1013.95 1013.95 1013.88 1013.78 1013.65 1013.52 1013.41 1013.30 1013.21 1013.12 1013.02 1012.90 1012.75 1012.57 1012.37 1012.14 1011.91 1011.69 1011.49 1011.33 1011.20 1011.12 1011.08 1011.07 1011.10 1011.16 1011.26 1011.40 1011.59 1011.83 1012.14 1012.49 1012.89 1013.31 1013.73 1014.12 1014.47 1014.76 1014.99 1015.18
1013.24 1013.46 1013.66 1013.80 1013.90 1013.93 1013.92 1013.87 1013.80 1013.72 1013.65 1013.59 1013.53 1013.47 1013.39 1013.27 1013.12 1012.92 1012.69 1012.43 1012.17 1011.92 1011.70 1011.52 1011.39 1011.32 1011.29 1011.30 1011.34 1011.42 1011.54 1011.69 1011.90 1012.15 1012.46 1012.80 1013.17 1013.55 1013.92 1014.25 1014.54 1014.78 1014.98
1012.99 1013.22 1013.45 1013.66 1013.84 1013.96 1014.03 1014.05 1014.03 1014.00 1013.96 1013.93 1013.91 1013.89 1013.85 1013.78 1013.67 1013.49 1013.27 1013.01 1012.72 1012.43 1012.17 1011.95 1011.78 1011.67 1011.61 1011.60 1011.62 1011.67 1011.76 1011.87 1012.02 1012.21 1012.45 1012.72 1013.02 1013.34 1013.65 1013.95 1014.21 1014.45 1014.67
1012.82 1013.04 1013.30 1013.56 1013.79 1013.98 1014.11 1014.18 1014.21 1014.21 1014.20 1014.20 1014.21 1014.23 1014.24 1014.23 1014.17 1014.05 1013.86 1013.61 1013.32 1013.01 1012.72 1012.46 1012.26 1012.11 1012.02 1011.98 1011.97 1011.99 1012.04 1012.10 1012.19 1012.31 1012.47 1012.66 1012.87 1013.11 1013.36 1013.60 1013.83 1014.06 1014.28
1012.70 1012.92 1013.19 1013.47 1013.75 1013.98 1014.15 1014.26 1014.31 1014.34 1014.35 1014.37 1014.42 1014.48 1014.55 1014.60 1014.61 1014.55 1014.41 1014.20 1013.93 1013.63 1013.32 1013.04 1012.80 1012.62 1012.49 1012.41 1012.36 1012.34 1012.34 1012.35 1012.38 1012.43 1012.51 1012.61 1012.75 1012.90 1013.07 1013.26 1013.45 1013.65 1013.86
1012.59 1012.81 1013.08 1013.39 1013.68 1013.94 1014.14 1014.27 1014.34 1014.37 1014.40 1014.44 1014.51 1014.62 1014.75 1014.87 1014.95 1014.97 1014.90 1014.75 1014.52 1014.23 1013.93 1013.63 1013.36 1013.14 1012.96 1012.84 1012.75 1012.68 1012.63 1012.59 1012.56 1012.55 1012.55 1012.59 1012.65 1012.74 1012.84 1012.97 1013.12 1013.29 1013.49
1012.41 1012.64 1012.92 1013.23 1013.54 1013.82 1014.03 1014.18 1014.26 1014.31 1014.34 1014.41 1014.51 1014.66 1014.84 1015.03 1015.19 1015.29 1015.30 1015.21 1015.03 1014.79 1014.50 1014.19 1013.90 1013.63 1013.41 1013.23 1013.09 1012.96 1012.86 1012.77 1012.69 1012.63 1012.59 1012.58 1012.59 1012.63 1012.69 1012.78 1012.89 1013.04 1013.21
1012.11 1012.34 1012.64 1012.97 1013.29 1013.59 1013.82 1013.99 1014.08 1014.15 1014.20 1014.28 1014.42 1014.60 1014.84 1015.09 1015.32 1015.49 1015.58 1015.57 1015.46 1015.26 1014.99 1014.69 1014.38 1014.08 1013.81 1013.58 1013.37 1013.19 1013.03 1012.90 1012.78 1012.69 1012.62 1012.58 1012.57 1012.59 1012.63 1012.70 1012.79 1012.92 1013.08
1011.66 1011.91 1012.22 1012.57 1012.92 1013.24 1013.50 1013.69 1013.82 1013.91 1013.99 1014.10 1014.26 1014.48 1014.75 1015.05 1015.35 1015.59 1015.75 1015.81 1015.76 1015.61 1015.38 1015.10 1014.78 1014.46 1014.16 1013.87 1013.61 1013.37 1013.16 1012.99 1012.83 1012.72 1012.64 1012.59 1012.58 1012.60 1012.65 1012.73 1012.83 1012.95 1013.10
1011.09 1011.35 1011.67 1012.04 1012.42 1012.77 1013.07 1013.31 1013.48 1013.61 1013.72 1013.87 1014.06 1014.30 1014.61 1014.94 1015.28 1015.57 1015.79 1015.92 1015.94 1015.85 1015.67 1015.41 1015.11 1014.79 1014.46 1014.14 1013.83 1013.55 1013.29 1013.07 1012.89 1012.76 1012.68 1012.64 1012.65 1012.69 1012.77 1012.87 1012.98 1013.11 1013.26
1010.45 1010.72 1011.05 1011.44 1011.84 1012.23 1012.58 1012.86 1013.08 1013.26 1013.42 1013.60 1013.81 1014.08 1014.40 1014.75 1015.11 1015.44 1015.71 1015.89 1015.97 1015.95 1015.83 1015.63 1015.38 1015.08 1014.75 1014.42 1014.08 1013.77 1013.47 1013.22 1013.01 1012.86 1012.78 1012.75 1012.78 1012.86 1012.97 1013.10 1013.24 1013.38 1013.53
1009.85 1010.10 1010.43 1010.82 1011.24 1011.66 1012.05 1012.38 1012.65 1012.88 1013.08 1013.29 1013.53 1013.81 1014.13 1014.49 1014.85 1015.19 1015.49 1015.72 1015.86 1015.91 1015.87 1015.75 1015.56 1015.32 1015.03 1014.72 1014.39 1014.06 1013.74 1013.46 1013.23 1013.07 1012.97 1012.96 1013.01 1013.11 1013.25 1013.42 1013.59 1013.75 1013.91
1009.35 1009.56 1009.87 1010.25 1010.67 1011.10 1011.51 1011.88 1012.20 1012.47 1012.71 1012.94 1013.19 1013.47 1013.79 1014.13 1014.48 1014.83 1015.14 1015.41 1015.61 1015.74 1015.79 1015.77 1015.68 1015.52 1015.31 1015.05 1014.75 1014.43 1014.12 1013.82 1013.58 1013.40 1013.30 1013.27 1013.33 1013.45 1013.62 1013.81 1014.00 1014.18 1014.34
1009.02 1009.18 1009.44 1009.79 1010.18 1010.60 1011.01 1011.39 1011.73 1012.02 1012.29 1012.54 1012.79 1013.07 1013.37 1013.69 1014.02 1014.36 1014.68 1014.97 1015.23 1015.43 1015.58 1015.68 1015.70 1015.66 1015.56 1015.38 1015.15 1014.88 1014.59 1014.30 1014.05 1013.85 1013.74 1013.71 1013.76 1013.89 1014.06 1014.27 1014.47 1014.66 1014.82
1008.87 1008.97 1009.18 1009.46 1009.81 1010.18 1010.56 1010.92 1011.25 1011.54 1011.81 1012.06 1012.31 1012.58 1012.86 1013.16 1013.47 1013.79 1014.12 1014.43 1014.73 1015.01 1015.26 1015.46 1015.62 1015.71 1015.73 1015.67 1015.54 1015.34 1015.10 1014.85 1014.60 1014.40 1014.28 1014.23 1014.27 1014.38 1014.55 1014.75 1014.96 1015.15 1015.30
1008.89 1008.93 1009.06 1009.27 1009.54 1009.84 1010.16 1010.47 1010.75 1011.02 1011.27 1011.52 1011.76 1012.02 1012.28 1012.56 1012.86 1013.17 1013.50 1013.83 1014.16 1014.50 1014.83 1015.14 1015.41 1015.63 1015.79 1015.86 1015.84 1015.75 1015.58 1015.38 1015.16 1014.98 1014.84 1014.78 1014.80 1014.89 1015.04 1015.23 1015.42 1015.60 1015.74
1009.02 1009.00 1009.06 1009.19 1009.37 1009.57 1009.80 1010.03 1010.25 1010.47 1010.69 1010.91 1011.14 1011.39 1011.65 1011.93 1012.22 1012.53 1012.85 1013.19 1013.54 1013.92 1014.31 1014.70 1015.08 1015.41 1015.69 1015.89 1016.00 1016.01 1015.94 1015.81 1015.65 1015.49 1015.36 1015.29 1015.29 1015.35 1015.48 1015.64 1015.81 1015.97 1016.10
1009.19 1009.13 1009.13 1009.18 1009.25 1009.35 1009.47 1009.59 1009.73 1009.88 1010.05 1010.24 1010.47 1010.71 1010.99 1011.27 1011.57 1011.88 1012.20 1012.55 1012.91 1013.31 1013.73 1014.17 1014.61 1015.04 1015.42 1015.73 1015.95 1016.08 1016.12 1016.08 1015.99 1015.87 1015.77 1015.70 1015.68 1015.72 1015.82 1015.95 1016.09 1016.23 1016.34
1009.34 1009.26 1009.22 1009.19 1009.17 1009.16 1009.15 1009.16 1009.19 1009.26 1009.38 1009.54 1009.75 1010.01 1010.30 1010.61 1010.93 1011.25 1011.58 1011.92 1012.28 1012.67 1013.10 1013.55 1014.03 1014.50 1014.96 1015.36 1015.69 1015.93 1016.07 1016.14 1016.13 1016.07 1016.01 1015.96 1015.94 1015.96 1016.03 1016.12 1016.24 1016.35 1016.45
1009.42 1009.35 1009.27 1009.19 1009.08 1008.96 1008.84 1008.72 1008.65 1008.62 1008.67 1008.80 1009.00 1009.27 1009.59 1009.93 1010.28 1010.63 1010.97 1011.31 1011.65 1012.02 1012.42 1012.86 1013.33 1013.83 1014.32 1014.79 1015.20 1015.54 1015.79 1015.95 1016.04 1016.07 1016.06 1016.04 1016.03 1016.05 1016.09 1016.16 1016.25 1016.34 1016.43
1009.42 1009.37 1009.28 1009.16 1008.98 1008.76 1008.51 1008.28 1008.09 1007.97 1007.95 1008.03 1008.22 1008.50 1008.85 1009.23 1009.62 1009.99 1010.34 1010.68 1011.00 1011.33 1011.69 1012.09 1012.54 1013.02 1013.53 1014.03 1014.51 1014.93 1015.28 1015.55 1015.74 1015.85 1015.91 1015.95 1015.96 1015.99 1016.03 1016.08 1016.15 1016.23 1016.31
1009.33 1009.32 1009.24 1009.08 1008.84 1008.53 1008.18 1007.83 1007.52 1007.30 1007.20 1007.24 1007.41 1007.69 1008.06 1008.47 1008.89 1009.29 1009.66 1009.99 1010.29 1010.58 1010.90 1011.25 1011.65 1012.10 1012.60 1013.13 1013.65 1014.15 1014.59 1014.95 1015.24 1015.45 1015.60 1015.70 1015.76 1015.81 1015.86 1015.92 1015.98 1016.05 1016.13
1009.20 1009.22 1009.15 1008.97 1008.68 1008.29 1007.84 1007.38 1006.97 1006.65 1006.47 1006.45 1006.58 1006.85 1007.22 1007.65 1008.10 1008.51 1008.89 1009.21 1009.50 1009.76 1010.02 1010.33 1010.68 1011.11 1011.59 1012.12 1012.68 1013.23 1013.75 1014.21 1014.59 1014.90 1015.14 1015.31 1015.44 1015.54 1015.62 1015.69 1015.77 1015.85 1015.94
1009.06 1009.11 1009.05 1008.86 1008.51 1008.06 1007.52 1006.97 1006.45 1006.04 1005.78 1005.69 1005.77 1006.01 1006.37 1006.79 1007.24 1007.67 1008.04 1008.36 1008.63 1008.86 1009.09 1009.35 1009.67 1010.07 1010.53 1011.07 1011.64 1012.24 1012.82 1013.36 1013.83 1014.24 1014.56 1014.82 1015.03 1015.19 1015.31 1015.43 1015.54 1015.65 1015.76
Thickness
5718 5717 5717 5716 5715 5715 5714 5714 5713 5712 5712 5711 5711 5710 5710 5710 5710 5711 5712 5714 5715 5716 5716 5717 5717 5717 5717 5717 5717 5717 5717 5717 5717 5718 5719 5719 5720 5719 5719 5719 5719 5720 5721
5714 5713 5712 5712 5711 5710 5709 5708 5708 5707 5706 5706 5705 5705 5705 5705 5705 5706 5707 5708 5709 5710 5711 5712 5712 5713 5713 5713 5713 5713 5712 5713 5713 5713 5714 5713 5714 5714 5714 5714 5715 5715 5716
5711 5710 5708 5707 5706 5705 5704 5703 5702 5702 5701 5701 5699 5699 5700 5700 5700 5701 5702 5702 5704 5705 5706 5706 5707 5707 5708 5708 5708 5708 5708 5708 5708 5709 5709 5709 5709 5709 5709 5710 5710 5710 5711
5708 5706 5704 5702 5701 5700 5699 5698 5696 5695 5694 5693 5693 5693 5694 5694 5695 5696 5696 5697 5698 5699 5700 5701 5702 5702 5702 5703 5703 5703 5703 5703 5704 5704 5704 5704 5704 5704 5705 5705 5706 5706 5706
5703 5701 5699 5698 5697 5695 5694 5693 5690 5689 5687 5687 5687 5688 5688 5688 5689 5690 5691 5691 5692 5693 5694 5695 5696 5697 5697 5698 5698 5699 5699 5699 5699 5700 5700 5699 5700 5700 5700 5700 5701 5701 5701
5698 5696 5694 5693 5692 5690 5688 5687 5685 5684 5682 5682 5683 5681 5681 5682 5683 5683 5684 5685 5686 5687 5688 5688 5690 5691 5692 5692 5693 5694 5694 5694 5695 5695 5695 5695 5695 5695 5695 5695 5696 5696 5696
5693 5691 5689 5688 5686 5684 5683 5682 5680 5677 5676 5676 5674 5671 5673 5674 5675 5676 5677 5677 5679 5680 5681 5682 5683 5685 5685 5686 5687 5688 5688 5689 5690 5690 5690 5690 5690 5690 5690 5690 5690 5690 5690
5688 5687 5684 5682 5681 5679 5677 5676 5675 5671 5670 5670 5666 5662 5660 5662 5666 5669 5669 5670 5671 5673 5674 5676 5677 5678 5679 5680 5681 5682 5683 5683 5685 5685 5685 5685 5685 5685 5684 5684 5685 5684 5684
5683 5682 5680 5678 5676 5675 5672 5671 5670 5667 5663 5663 5663 5659 5653 5650 5653 5658 5660 5662 5663 5665 5667 5669 5670 5672 5673 5673 5675 5676 5677 5678 5679 5680 5680 5681 5680 5680 5680 5679 5680 5679 5679
5679 5677 5675 5673 5672 5670 5668 5667 5665 5663 5660 5657 5657 5657 5655 5653 5647 5647 5651 5654 5656 5658 5660 5662 5663 5664 5666 5667 5669 5670 5672 5673 5674 5675 5675 5676 5676 5676 5676 5675 5675 5674 5674
5674 5673 5671 5669 5667 5665 5664 5662 5660 5659 5657 5654 5652 5652 5650 5648 5647 5642 5640 5644 5647 5650 5652 5655 5656 5657 5659 5661 5662 5664 5666 5667 5668 5669 5670 5671 5671 5671 5671 5671 5671 5670 5670
5669 5668 5666 5664 5663 5661 5659 5657 5656 5654 5652 5651 5649 5648 5646 5644 5641 5639 5635 5636 5638 5642 5646 5648 5650 5651 5652 5654 5656 5658 5660 5661 5662 5663 5664 5665 5666 5666 5666 5667 5666 5666 5665
5663 5663 5662 5660 5658 5657 5655 5653 5651 5649 5648 5646 5645 5644 5643 5642 5641 5637 5633 5631 5631 5634 5638 5641 5644 5645 5646 5648 5650 5652 5653 5655 5657 5658 5659 5660 5661 5662 5662 5662 5662 5662 5661
5659 5659 5657 5656 5654 5652 5651 5648 5646 5645 5644 5642 5642 5640 5639 5638 5637 5635 5632 5628 5626 5627 5630 5634 5637 5639 5640 5642 5644 5645 5647 5649 5651 5652 5654 5655 5656 5657 5657 5657 5657 5657 5656
5657 5655 5653 5651 5649 5648 5646 5644 5641 5640 5638 5637 5636 5636 5634 5633 5633 5632 5630 5628 5624 5621 5623 5627 5630 5633 5635 5636 5638 5640 5642 5644 5645 5647 5648 5649 5650 5651 5652 5652 5651 5651 5651
5652 5650 5648 5646 5644 5642 5640 5638 5636 5635 5633 5631 5631 5630 5629 5629 5628 5627 5626 5625 5623 5621 5618 5622 5624 5628 5629 5631 5632 5634 5636 5637 5639 5641 5643 5644 5645 5646 5646 5646 5646 5645 5645
5648 5645 5643 5641 5639 5637 5635 5632 5630 5629 5627 5626 5625 5625 5624 5624 5623 5622 5621 5620 5618 5617 5615 5618 5620 5622 5624 5625 5626 5628 5630 5631 5634 5636 5638 5639 5640 5641 5641 5641 5641 5641 5641
5643 5641 5638 5635 5633 5631 5629 5627 5625 5623 5622 5620 5620 5619 5618 5618 5617 5616 5616 5615 5614 5614 5613 5612 5614 5616 5618 5619 5621 5622 5624 5627 5628 5631 5632 5634 5635 5636 5636 5636 5636 5636 5636
5638 5635 5633 5629 5627 5625 5623 5622 5621 5619 5617 5616 5615 5614 5613 5612 5611 5611 5610 5610 5610 5610 5609 5608 5609 5610 5611 5613 5614 5616 5618 5620 5623 5625 5627 5629 5630 5630 5631 5631 5631 5631 5631
5633 5630 5627 5625 5622 5620 5618 5617 5616 5614 5612 5611 5610 5609 5608 5607 5607 5606 5606 5605 5605 5604 5604 5604 5604 5604 5604 5606 5607 5608 5610 5613 5616 5620 5622 5624 5624 5625 5625 5626 5626 5625 5625
5628 5625 5622 5619 5617 5615 5614 5612 5610 5608 5605 5604 5604 5603 5603 5604 5604 5603 5602 5601 5600 5599 5598 5598 5598 5598 5598 5598 5599 5601 5603 5606 5609 5613 5615 5616 5618 5618 5619 5620 5620 5619 5619
5622 5619 5616 5614 5611 5611 5610 5608 5605 5602 5600 5598 5597 5597 5598 5598 5598 5598 5599 5598 5597 5596 5593 5592 5592 5592 5594 5594 5595 5596 5596 5597 5600 5606 5607 5609 5610 5611 5612 5613 5614 5614 5614
5615 5612 5610 5608 5606 5605 5605 5604 5601 5597 5594 5593 5592 5591 5592 5593 5592 5591 5592 5593 5593 5593 5593 5591 5589 5590 5590 5591 5590 5590 5591 5592 5594 5599 5600 5601 5602 5604 5606 5606 5607 5608 5608
5608 5605 5603 5601 5600 5600 5600 5599 5596 5592 5589 5588 5587 5586 5585 5585 5586 5585 5585 5585 5585 5586 5587 5587 5587 5588 5588 5589 5588 5589 5589 5588 5589 5591 5592 5592 5595 5596 5599 5600 5601 5601 5601
5601 5599 5597 5595 5593 5592 5593 5592 5589 5585 5583 5582 5582 5581 5580 5580 5581 5581 5578 5577 5578 5579 5581 5581 5582 5583 5584 5585 5584 5582 5581 5580 5580 5582 5584 5585 5587 5588 5590 5591 5593 5593 5593
5594 5592 5590 5588 5586 5584 5585 5584 5582 5579 5576 5575 5574 5574 5574 5574 5575 5574 5572 5571 5570 5572 5573 5574 5574 5575 5576 5577 5577 5577 5576 5574 5573 5574 5578 5578 5579 5579 5579 5582 5584 5584 5585